Location: La B�doule
(43.2468°N, 5.5934°E)
Time: 21:09:41
(UTC+00:00)

H-2A R/B - Pass Details

Date: 07 June 2020
Orbit: 577 x 655 km, 98.5° (Epoch: 04 July)

Event Time Altitude Azimuth Distance (km) Brightness Sun altitude
Rises 03:15:43 0° 180° (S) 2,912 5.1 -7.0°
Reaches altitude 10° 03:17:57 10° 186° (S) 2,020 4.3 -6.7°
Maximum altitude 03:22:12 47° 260° (W) 862 2.5 -6.1°
Drops below altitude 10° 03:26:34 10° 335° (NNW) 2,067 4.9 -5.5°
Sets 03:28:53 0° 341° (NNW) 2,988 5.8 -5.1°
